Weather in Puyang

China     30°58′42″N   103°56′22″E
temp.,
°C
wind,
m/s
gust,
m/s
humid.,
%
clouds,
%
prec.,
mm/h
press.,
hPa
HPBL,
m
28 november, sun
sun2823:00+11ne118199 0.0 1026182
02:00+11ne118595 0.0 1025127
05:00+10ese118796 0.0 102569
08:00+10nne1187100 0.0 102654
11:00+11ene1180100 0.0 1026401
14:00+13e226887 0.0 1022872
17:00+13ese2270100 0.1 1022636
20:00+12ne2377100 0.1 1024124
29 november, mon
mon2923:00+12nne3677100 0.0 1025246
02:00+12nne2472100 0.1 1024166
05:00+11ene1276100 0.2 1024100
08:00+11ene2680100 0.3 1027509
11:00+9e3651100 0.0 1030509
14:00+10w3252100 0.0 1029645
17:00+11sw4553100 0.0 1030604
20:00+9wsw368083 0.0 1033221
30 november, tue
tue3023:00+8sw368481 0.0 1034129
02:00+8wsw348196 0.0 103360
05:00+7sw118011 0.0 103211
08:00+7wsw00805 0.0 103310
11:00+11se11625 0.0 1033431
14:00+14s23453 0.0 10271193
17:00+14s23431 0.0 10261320
20:00+11ssw225915 0.0 102921
1 december, wed
wed123:00+9wsw22654 0.0 102915
02:00+8wsw22704 0.0 102818
05:00+7wsw11725 0.0 102710
08:00+7nne11745 0.0 102911
11:00+11ene115718 0.0 1030516
14:00+13sse114712 0.0 10261253
17:00+13s114111 0.0 10251506
20:00+11wsw11537 0.0 102711
2 december, thu
thu223:00+10w22604 0.0 102812
02:00+9w12660 0.0 102812
05:00+8nnw11690 0.0 102710
08:00+7wnw11700 0.0 102910
11:00+12sw11520 0.0 1030399
14:00+15ssw21405 0.0 1026991
17:00+15s11375 0.0 1025802
20:00+11wsw115015 0.0 102711